Year,Month,Day,Hour,Minute,Value (Times are PST for windspeed in km/hr)
2010,04,29,00,00,4.00
2010,04,29,00,01,1.70
2010,04,29,00,02,5.90
2010,04,29,00,03,4.30
2010,04,29,00,04,4.40
2010,04,29,00,05,5.20
2010,04,29,00,06,4.30
2010,04,29,00,07,3.30
2010,04,29,00,08,8.50
2010,04,29,00,09,5.70
2010,04,29,00,10,3.60
2010,04,29,00,11,6.30
2010,04,29,00,12,2.00
2010,04,29,00,13,5.40
2010,04,29,00,14,4.20
2010,04,29,00,15,1.60
2010,04,29,00,16,4.70
2010,04,29,00,17,2.60
2010,04,29,00,18,1.50
2010,04,29,00,19,2.30
2010,04,29,00,20,7.60
2010,04,29,00,21,5.80
2010,04,29,00,22,5.10
2010,04,29,00,23,8.50
2010,04,29,00,24,6.80
2010,04,29,00,25,1.40
2010,04,29,00,26,1.10
2010,04,29,00,27,4.50
2010,04,29,00,28,7.20
2010,04,29,00,29,4.50
2010,04,29,00,30,4.30
2010,04,29,00,31,2.30
2010,04,29,00,32,4.20
2010,04,29,00,33,4.30
2010,04,29,00,34,1.60
2010,04,29,00,35,1.90
2010,04,29,00,36,1.90
2010,04,29,00,37,1.40
2010,04,29,00,38,2.00
2010,04,29,00,39,0.30
2010,04,29,00,40,1.40
2010,04,29,00,41,3.70
2010,04,29,00,42,1.40
2010,04,29,00,43,0.60
2010,04,29,00,44,4.90
2010,04,29,00,45,3.80
2010,04,29,00,46,0.10
2010,04,29,00,47,4.30
2010,04,29,00,48,0.80
2010,04,29,00,49,1.90
2010,04,29,00,50,5.30
2010,04,29,00,51,3.00
2010,04,29,00,52,6.00
2010,04,29,00,53,3.00
2010,04,29,00,54,7.50
2010,04,29,00,55,7.20
2010,04,29,00,56,4.60
2010,04,29,00,57,3.90
2010,04,29,00,58,4.10
2010,04,29,00,59,5.00
2010,04,29,01,00,1.00
2010,04,29,01,01,0.40
2010,04,29,01,02,1.10
2010,04,29,01,03,4.80
2010,04,29,01,04,2.70
2010,04,29,01,05,3.80
2010,04,29,01,06,1.80
2010,04,29,01,07,1.60
2010,04,29,01,08,2.50
2010,04,29,01,09,4.60
2010,04,29,01,10,1.10
2010,04,29,01,11,4.40
2010,04,29,01,12,1.80
2010,04,29,01,13,1.90
2010,04,29,01,14,0.00
2010,04,29,01,15,2.20
2010,04,29,01,16,3.90
2010,04,29,01,17,3.10
2010,04,29,01,18,4.90
2010,04,29,01,19,0.60
2010,04,29,01,20,0.00
2010,04,29,01,21,0.00
2010,04,29,01,22,0.90
2010,04,29,01,23,3.20
2010,04,29,01,24,0.30
2010,04,29,01,25,0.50
2010,04,29,01,26,2.70
2010,04,29,01,27,2.10
2010,04,29,01,28,0.30
2010,04,29,01,29,3.30
2010,04,29,01,30,0.10
2010,04,29,01,31,1.80
2010,04,29,01,32,1.50
2010,04,29,01,33,1.10
2010,04,29,01,34,3.60
2010,04,29,01,35,8.00
2010,04,29,01,36,2.50
2010,04,29,01,37,1.10
2010,04,29,01,38,1.30
2010,04,29,01,39,3.90
2010,04,29,01,40,3.90
2010,04,29,01,41,2.10
2010,04,29,01,42,0.90
2010,04,29,01,43,0.00
2010,04,29,01,44,0.30
2010,04,29,01,45,4.70
2010,04,29,01,46,2.60
2010,04,29,01,47,1.60
2010,04,29,01,48,1.10
2010,04,29,01,49,3.70
2010,04,29,01,50,0.60
2010,04,29,01,51,4.00
2010,04,29,01,52,4.30
2010,04,29,01,53,0.90
2010,04,29,01,54,5.10
2010,04,29,01,55,3.00
2010,04,29,01,56,1.40
2010,04,29,01,57,1.60
2010,04,29,01,58,1.10
2010,04,29,01,59,0.10
2010,04,29,02,00,1.90
2010,04,29,02,01,4.60
2010,04,29,02,02,0.20
2010,04,29,02,03,0.80
2010,04,29,02,04,0.60
2010,04,29,02,05,1.80
2010,04,29,02,06,0.10
2010,04,29,02,07,0.30
2010,04,29,02,08,0.70
2010,04,29,02,09,3.00
2010,04,29,02,10,2.10
2010,04,29,02,11,2.60
2010,04,29,02,12,3.40
2010,04,29,02,13,0.90
2010,04,29,02,14,1.80
2010,04,29,02,15,0.70
2010,04,29,02,16,4.20
2010,04,29,02,17,4.70
2010,04,29,02,18,5.00
2010,04,29,02,19,1.10
2010,04,29,02,20,3.10
2010,04,29,02,21,2.60
2010,04,29,02,22,4.50
2010,04,29,02,23,2.60
2010,04,29,02,24,2.00
2010,04,29,02,25,5.40
2010,04,29,02,26,4.50
2010,04,29,02,27,2.70
2010,04,29,02,28,7.40
2010,04,29,02,29,4.00
2010,04,29,02,30,3.10
2010,04,29,02,31,4.30
2010,04,29,02,32,0.40
2010,04,29,02,33,0.10
2010,04,29,02,34,2.20
2010,04,29,02,35,0.60
2010,04,29,02,36,0.00
2010,04,29,02,37,1.80
2010,04,29,02,38,3.20
2010,04,29,02,39,1.60
2010,04,29,02,40,0.30
2010,04,29,02,41,2.00
2010,04,29,02,42,2.10
2010,04,29,02,43,1.20
2010,04,29,02,44,1.30
2010,04,29,02,45,1.20
2010,04,29,02,46,0.10
2010,04,29,02,47,0.50
2010,04,29,02,48,1.80
2010,04,29,02,49,0.00
2010,04,29,02,50,0.00
2010,04,29,02,51,0.00
2010,04,29,02,52,0.00
2010,04,29,02,53,0.00
2010,04,29,02,54,0.00
2010,04,29,02,55,0.00
2010,04,29,02,56,0.00
2010,04,29,02,57,0.20
2010,04,29,02,58,0.10
2010,04,29,02,59,0.00
2010,04,29,03,00,0.00
2010,04,29,03,01,0.00
2010,04,29,03,02,0.30
2010,04,29,03,03,0.10
2010,04,29,03,04,0.00
2010,04,29,03,05,0.00
2010,04,29,03,06,0.00
2010,04,29,03,07,0.00
2010,04,29,03,08,0.20
2010,04,29,03,09,0.00
2010,04,29,03,10,0.10
2010,04,29,03,11,0.00
2010,04,29,03,12,0.10
2010,04,29,03,13,0.40
2010,04,29,03,14,0.40
2010,04,29,03,15,0.10
2010,04,29,03,16,0.40
2010,04,29,03,17,0.00
2010,04,29,03,18,0.00
2010,04,29,03,19,0.00
2010,04,29,03,20,0.10
2010,04,29,03,21,0.20
2010,04,29,03,22,0.90
2010,04,29,03,23,1.10
2010,04,29,03,24,0.90
2010,04,29,03,25,0.00
2010,04,29,03,26,0.00
2010,04,29,03,27,0.50
2010,04,29,03,28,0.10
2010,04,29,03,29,1.40
2010,04,29,03,30,1.60
2010,04,29,03,31,0.30
2010,04,29,03,32,0.80
2010,04,29,03,33,0.20
2010,04,29,03,34,0.00
2010,04,29,03,35,0.00
2010,04,29,03,36,0.10
2010,04,29,03,37,0.40
2010,04,29,03,38,0.10
2010,04,29,03,39,0.00
2010,04,29,03,40,0.00
2010,04,29,03,41,0.00
2010,04,29,03,42,0.00
2010,04,29,03,43,1.40
2010,04,29,03,44,1.70
2010,04,29,03,45,2.60
2010,04,29,03,46,0.50
2010,04,29,03,47,0.30
2010,04,29,03,48,0.10
2010,04,29,03,49,1.00
2010,04,29,03,50,0.20
2010,04,29,03,51,0.10
2010,04,29,03,52,1.90
2010,04,29,03,53,3.40
2010,04,29,03,54,1.60
2010,04,29,03,55,1.40
2010,04,29,03,56,0.10
2010,04,29,03,57,0.00
2010,04,29,03,58,0.00
2010,04,29,03,59,0.00
2010,04,29,04,00,0.70
2010,04,29,04,01,0.20
2010,04,29,04,02,0.00
2010,04,29,04,03,0.50
2010,04,29,04,04,1.70
2010,04,29,04,05,0.90
2010,04,29,04,06,0.50
2010,04,29,04,07,1.30
2010,04,29,04,08,0.20
2010,04,29,04,09,0.10
2010,04,29,04,10,0.00
2010,04,29,04,11,0.10
2010,04,29,04,12,0.00
2010,04,29,04,13,0.60
2010,04,29,04,14,0.00
2010,04,29,04,15,0.10
2010,04,29,04,16,0.00
2010,04,29,04,17,0.10
2010,04,29,04,18,0.10
2010,04,29,04,19,0.70
2010,04,29,04,20,0.00
2010,04,29,04,21,0.10
2010,04,29,04,22,0.60
2010,04,29,04,23,0.10
2010,04,29,04,24,0.00
2010,04,29,04,25,1.40
2010,04,29,04,26,1.50
2010,04,29,04,27,0.10
2010,04,29,04,28,0.00
2010,04,29,04,29,1.80
2010,04,29,04,30,2.20
2010,04,29,04,31,0.10
2010,04,29,04,32,1.60
2010,04,29,04,33,1.10
2010,04,29,04,34,1.90
2010,04,29,04,35,0.00
2010,04,29,04,36,0.30
2010,04,29,04,37,0.00
2010,04,29,04,38,0.10
2010,04,29,04,39,0.50
2010,04,29,04,40,0.80
2010,04,29,04,41,0.90
2010,04,29,04,42,1.80
2010,04,29,04,43,0.80
2010,04,29,04,44,0.50
2010,04,29,04,45,1.40
2010,04,29,04,46,2.40
2010,04,29,04,47,1.20
2010,04,29,04,48,1.60
2010,04,29,04,49,0.80
2010,04,29,04,50,0.20
2010,04,29,04,51,3.10
2010,04,29,04,52,1.40
2010,04,29,04,53,1.00
2010,04,29,04,54,1.70
2010,04,29,04,55,3.10
2010,04,29,04,56,5.40
2010,04,29,04,57,0.80
2010,04,29,04,58,2.30
2010,04,29,04,59,1.40
2010,04,29,05,00,1.90
2010,04,29,05,01,0.50
2010,04,29,05,02,0.40
2010,04,29,05,03,0.90
2010,04,29,05,04,0.10
2010,04,29,05,05,0.80
2010,04,29,05,06,2.80
2010,04,29,05,07,0.20
2010,04,29,05,08,1.30
2010,04,29,05,09,1.10
2010,04,29,05,10,2.10
2010,04,29,05,11,0.10
2010,04,29,05,12,0.00
2010,04,29,05,13,0.20
2010,04,29,05,14,3.10
2010,04,29,05,15,0.00
2010,04,29,05,16,0.30
2010,04,29,05,17,0.60
2010,04,29,05,18,1.30
2010,04,29,05,19,0.30
2010,04,29,05,20,2.70
2010,04,29,05,21,0.10
2010,04,29,05,22,0.40
2010,04,29,05,23,1.20
2010,04,29,05,24,2.70
2010,04,29,05,25,0.80
2010,04,29,05,26,0.80
2010,04,29,05,27,2.70
2010,04,29,05,28,2.80
2010,04,29,05,29,0.10
2010,04,29,05,30,0.60
2010,04,29,05,31,0.40
2010,04,29,05,32,0.80
2010,04,29,05,33,1.90
2010,04,29,05,34,0.70
2010,04,29,05,35,0.70
2010,04,29,05,36,1.40
2010,04,29,05,37,0.00
2010,04,29,05,38,2.80
2010,04,29,05,39,0.20
2010,04,29,05,40,0.10
2010,04,29,05,41,0.90
2010,04,29,05,42,4.70
2010,04,29,05,43,4.20
2010,04,29,05,44,1.70
2010,04,29,05,45,3.70
2010,04,29,05,46,1.60
2010,04,29,05,47,1.10
2010,04,29,05,48,1.60
2010,04,29,05,49,1.50
2010,04,29,05,50,4.10
2010,04,29,05,51,1.70
2010,04,29,05,52,1.90
2010,04,29,05,53,2.40
2010,04,29,05,54,4.00
2010,04,29,05,55,2.50
2010,04,29,05,56,3.40
2010,04,29,05,57,0.20
2010,04,29,05,58,4.30
2010,04,29,05,59,1.20
2010,04,29,06,00,1.80
2010,04,29,06,01,3.50
2010,04,29,06,02,3.10
2010,04,29,06,03,3.90
2010,04,29,06,04,2.20
2010,04,29,06,05,2.00
2010,04,29,06,06,3.10
2010,04,29,06,07,2.50
2010,04,29,06,08,3.10
2010,04,29,06,09,3.50
2010,04,29,06,10,1.80
2010,04,29,06,11,5.90
2010,04,29,06,12,1.90
2010,04,29,06,13,1.40
2010,04,29,06,14,4.50
2010,04,29,06,15,0.90
2010,04,29,06,16,1.40
2010,04,29,06,17,4.50
2010,04,29,06,18,3.90
2010,04,29,06,19,2.90
2010,04,29,06,20,1.70
2010,04,29,06,21,2.10
2010,04,29,06,22,1.80
2010,04,29,06,23,1.70
2010,04,29,06,24,0.80
2010,04,29,06,25,0.40
2010,04,29,06,26,0.20
2010,04,29,06,27,2.10
2010,04,29,06,28,2.80
2010,04,29,06,29,1.10
2010,04,29,06,30,4.90
2010,04,29,06,31,2.70
2010,04,29,06,32,0.40
2010,04,29,06,33,2.90
2010,04,29,06,34,1.60
2010,04,29,06,35,3.50
2010,04,29,06,36,1.00
2010,04,29,06,37,0.10
2010,04,29,06,38,0.00
2010,04,29,06,39,2.30
2010,04,29,06,40,1.70
2010,04,29,06,41,2.50
2010,04,29,06,42,1.50
2010,04,29,06,43,0.90
2010,04,29,06,44,0.20
2010,04,29,06,45,1.30
2010,04,29,06,46,2.10
2010,04,29,06,47,0.20
2010,04,29,06,48,0.00
2010,04,29,06,49,1.60
2010,04,29,06,50,2.40
2010,04,29,06,51,2.90
2010,04,29,06,52,0.80
2010,04,29,06,53,5.40
2010,04,29,06,54,4.30
2010,04,29,06,55,0.60
2010,04,29,06,56,1.80
2010,04,29,06,57,5.10
2010,04,29,06,58,4.10
2010,04,29,06,59,1.90
2010,04,29,07,00,4.70
2010,04,29,07,01,2.20
2010,04,29,07,02,1.90
2010,04,29,07,03,1.70
2010,04,29,07,04,3.90
2010,04,29,07,05,2.90
2010,04,29,07,06,2.30
2010,04,29,07,07,2.10
2010,04,29,07,08,1.60
2010,04,29,07,09,0.00
2010,04,29,07,10,4.00
2010,04,29,07,11,6.90
2010,04,29,07,12,5.50
2010,04,29,07,13,0.90
2010,04,29,07,14,3.80
2010,04,29,07,15,2.70
2010,04,29,07,16,1.80
2010,04,29,07,17,1.70
2010,04,29,07,18,1.40
2010,04,29,07,19,2.70
2010,04,29,07,20,1.60
2010,04,29,07,21,3.60
2010,04,29,07,22,5.50
2010,04,29,07,23,1.40
2010,04,29,07,24,1.90
2010,04,29,07,25,0.50
2010,04,29,07,26,0.00
2010,04,29,07,27,0.20
2010,04,29,07,28,2.10
2010,04,29,07,29,3.70
2010,04,29,07,30,2.70
2010,04,29,07,31,0.20
2010,04,29,07,32,1.90
2010,04,29,07,33,2.50
2010,04,29,07,34,1.10
2010,04,29,07,35,0.70
2010,04,29,07,36,0.00
2010,04,29,07,37,1.10
2010,04,29,07,38,2.30
2010,04,29,07,39,4.10
2010,04,29,07,40,3.10
2010,04,29,07,41,0.40
2010,04,29,07,42,3.00
2010,04,29,07,43,6.40
2010,04,29,07,44,2.30
2010,04,29,07,45,2.50
2010,04,29,07,46,0.70
2010,04,29,07,47,4.20
2010,04,29,07,48,1.20
2010,04,29,07,49,1.50
2010,04,29,07,50,5.40
2010,04,29,07,51,4.50
2010,04,29,07,52,5.40
2010,04,29,07,53,3.70
2010,04,29,07,54,0.70
2010,04,29,07,55,1.80
2010,04,29,07,56,3.40
2010,04,29,07,57,2.80
2010,04,29,07,58,4.60
2010,04,29,07,59,1.20
2010,04,29,08,00,2.20
2010,04,29,08,01,5.10
2010,04,29,08,02,4.50
2010,04,29,08,03,6.30
2010,04,29,08,04,4.50
2010,04,29,08,05,0.20
2010,04,29,08,06,3.90
2010,04,29,08,07,3.40
2010,04,29,08,08,3.30
2010,04,29,08,09,1.50
2010,04,29,08,10,3.90
2010,04,29,08,11,2.90
2010,04,29,08,12,0.20
2010,04,29,08,13,1.40
2010,04,29,08,14,2.90
2010,04,29,08,15,4.30
2010,04,29,08,16,3.10
2010,04,29,08,17,1.50
2010,04,29,08,18,6.90
2010,04,29,08,19,6.40
2010,04,29,08,20,5.20
2010,04,29,08,21,0.10
2010,04,29,08,22,0.70
2010,04,29,08,23,4.00
2010,04,29,08,24,2.50
2010,04,29,08,25,6.60
2010,04,29,08,26,4.60
2010,04,29,08,27,0.30
2010,04,29,08,28,0.90
2010,04,29,08,29,0.40
2010,04,29,08,30,2.20
2010,04,29,08,31,0.50
2010,04,29,08,32,0.20
2010,04,29,08,33,0.20
2010,04,29,08,34,0.00
2010,04,29,08,35,0.20
2010,04,29,08,36,3.90
2010,04,29,08,37,9.10
2010,04,29,08,38,1.80
2010,04,29,08,39,1.10
2010,04,29,08,40,1.70
2010,04,29,08,41,5.70
2010,04,29,08,42,7.00
2010,04,29,08,43,7.50
2010,04,29,08,44,6.40
2010,04,29,08,45,5.50
2010,04,29,08,46,2.30
2010,04,29,08,47,0.60
2010,04,29,08,48,4.90
2010,04,29,08,49,9.90
2010,04,29,08,50,7.00
2010,04,29,08,51,7.10
2010,04,29,08,52,6.10
2010,04,29,08,53,6.40
2010,04,29,08,54,5.70
2010,04,29,08,55,6.40
2010,04,29,08,56,5.70
2010,04,29,08,57,6.70
2010,04,29,08,58,0.60
2010,04,29,08,59,9.20
2010,04,29,09,00,5.40
2010,04,29,09,01,3.90
2010,04,29,09,02,7.60
2010,04,29,09,03,3.80
2010,04,29,09,04,7.70
2010,04,29,09,05,2.90
2010,04,29,09,06,3.20
2010,04,29,09,07,8.80
2010,04,29,09,08,9.10
2010,04,29,09,09,6.90
2010,04,29,09,10,6.00
2010,04,29,09,11,7.20
2010,04,29,09,12,5.40
2010,04,29,09,13,4.90
2010,04,29,09,14,5.70
2010,04,29,09,15,5.40
2010,04,29,09,16,4.50
2010,04,29,09,17,7.30
2010,04,29,09,18,5.80
2010,04,29,09,19,9.20
2010,04,29,09,20,3.30
2010,04,29,09,21,6.40
2010,04,29,09,22,3.50
2010,04,29,09,23,7.20
2010,04,29,09,24,9.70
2010,04,29,09,25,8.50
2010,04,29,09,26,3.90
2010,04,29,09,27,5.60
2010,04,29,09,28,10.50
2010,04,29,09,29,7.20
2010,04,29,09,30,10.00
2010,04,29,09,31,9.70
2010,04,29,09,32,7.60
2010,04,29,09,33,9.90
2010,04,29,09,34,2.90
2010,04,29,09,35,0.70
2010,04,29,09,36,7.70
2010,04,29,09,37,5.30
2010,04,29,09,38,4.90
2010,04,29,09,39,5.50
2010,04,29,09,40,2.60
2010,04,29,09,41,3.50
2010,04,29,09,42,6.20
2010,04,29,09,43,7.30
2010,04,29,09,44,10.10
2010,04,29,09,45,8.40
2010,04,29,09,46,4.10
2010,04,29,09,47,9.40
2010,04,29,09,48,4.80
2010,04,29,09,49,3.20
2010,04,29,09,50,2.90
2010,04,29,09,51,5.10
2010,04,29,09,52,8.00
2010,04,29,09,53,7.50
2010,04,29,09,54,7.60
2010,04,29,09,55,8.60
2010,04,29,09,56,6.70
2010,04,29,09,57,6.80
2010,04,29,09,58,8.80
2010,04,29,09,59,6.50
2010,04,29,10,00,3.50
2010,04,29,10,01,8.70
2010,04,29,10,02,3.60
2010,04,29,10,03,8.10
2010,04,29,10,04,7.10
2010,04,29,10,05,6.00
2010,04,29,10,06,7.90
2010,04,29,10,07,9.40
2010,04,29,10,08,14.20
2010,04,29,10,09,12.30
2010,04,29,10,10,8.50
2010,04,29,10,11,7.70
2010,04,29,10,12,11.20
2010,04,29,10,13,5.40
2010,04,29,10,14,3.70
2010,04,29,10,15,8.80
2010,04,29,10,16,8.10
2010,04,29,10,17,8.80
2010,04,29,10,18,10.60
2010,04,29,10,19,8.40
2010,04,29,10,20,9.10
2010,04,29,10,21,11.40
2010,04,29,10,22,7.80
2010,04,29,10,23,8.00
2010,04,29,10,24,4.40
2010,04,29,10,25,3.10
2010,04,29,10,26,8.50
2010,04,29,10,27,12.20
2010,04,29,10,28,11.30
2010,04,29,10,29,5.60
2010,04,29,10,30,4.30
2010,04,29,10,31,9.00
2010,04,29,10,32,11.40
2010,04,29,10,33,7.70
2010,04,29,10,34,12.80
2010,04,29,10,35,8.90
2010,04,29,10,36,5.50
2010,04,29,10,37,9.50
2010,04,29,10,38,8.10
2010,04,29,10,39,7.50
2010,04,29,10,40,8.00
2010,04,29,10,41,10.00
2010,04,29,10,42,16.80
2010,04,29,10,43,10.80
2010,04,29,10,44,6.50
2010,04,29,10,45,12.20
2010,04,29,10,46,10.90
2010,04,29,10,47,10.50
2010,04,29,10,48,8.60
2010,04,29,10,49,7.00
2010,04,29,10,50,5.10
2010,04,29,10,51,4.60
2010,04,29,10,52,8.00
2010,04,29,10,53,10.90
2010,04,29,10,54,4.30
2010,04,29,10,55,4.30
2010,04,29,10,56,6.10
2010,04,29,10,57,7.00
2010,04,29,10,58,4.60
2010,04,29,10,59,7.90
2010,04,29,11,00,4.20
2010,04,29,11,01,5.60
2010,04,29,11,02,8.40
2010,04,29,11,03,6.30
2010,04,29,11,04,10.80
2010,04,29,11,05,7.70
2010,04,29,11,06,10.10
2010,04,29,11,07,10.90
2010,04,29,11,08,10.10
2010,04,29,11,09,2.20
2010,04,29,11,10,10.80
2010,04,29,11,11,9.80
2010,04,29,11,12,7.40
2010,04,29,11,13,12.70
2010,04,29,11,14,7.50
2010,04,29,11,15,8.80
2010,04,29,11,16,10.90
2010,04,29,11,17,9.40
2010,04,29,11,18,7.90
2010,04,29,11,19,10.70
2010,04,29,11,20,12.60
2010,04,29,11,21,6.80
2010,04,29,11,22,7.30
2010,04,29,11,23,11.20
2010,04,29,11,24,7.20
2010,04,29,11,25,12.50
2010,04,29,11,26,9.60
2010,04,29,11,27,8.10
2010,04,29,11,28,6.00
2010,04,29,11,29,5.80
2010,04,29,11,30,5.20
2010,04,29,11,31,8.50
2010,04,29,11,32,7.60
2010,04,29,11,33,9.10
2010,04,29,11,34,5.00
2010,04,29,11,35,9.80
2010,04,29,11,36,6.30
2010,04,29,11,37,12.90
2010,04,29,11,38,9.40
2010,04,29,11,39,4.60
2010,04,29,11,40,11.90
2010,04,29,11,41,13.20
2010,04,29,11,42,11.70
2010,04,29,11,43,10.90
2010,04,29,11,44,11.90
2010,04,29,11,45,11.20
2010,04,29,11,46,9.00
2010,04,29,11,47,17.20
2010,04,29,11,48,8.40
2010,04,29,11,49,10.90
2010,04,29,11,50,6.00
2010,04,29,11,51,7.60
2010,04,29,11,52,10.70
2010,04,29,11,53,13.10
2010,04,29,11,54,11.30
2010,04,29,11,55,8.10
2010,04,29,11,56,7.60
2010,04,29,11,57,9.70
2010,04,29,11,58,12.80
2010,04,29,11,59,6.60
2010,04,29,12,00,13.60
2010,04,29,12,01,11.20
2010,04,29,12,02,9.10
2010,04,29,12,03,5.20
2010,04,29,12,04,5.00
2010,04,29,12,05,8.00
2010,04,29,12,06,15.50
2010,04,29,12,07,6.60
2010,04,29,12,08,8.00
2010,04,29,12,09,6.60
2010,04,29,12,10,9.00
2010,04,29,12,11,10.80
2010,04,29,12,12,8.40
2010,04,29,12,13,10.20
2010,04,29,12,14,11.30
2010,04,29,12,15,7.90
2010,04,29,12,16,10.50
2010,04,29,12,17,10.20
2010,04,29,12,18,10.30
2010,04,29,12,19,11.30
2010,04,29,12,20,4.00
2010,04,29,12,21,6.00
2010,04,29,12,22,5.50
2010,04,29,12,23,8.00
2010,04,29,12,24,3.60
2010,04,29,12,25,7.50
2010,04,29,12,26,14.30
2010,04,29,12,27,13.00
2010,04,29,12,28,10.70
2010,04,29,12,29,9.00
2010,04,29,12,30,13.90
2010,04,29,12,31,9.70
2010,04,29,12,32,16.40
2010,04,29,12,33,11.80
2010,04,29,12,34,8.00
2010,04,29,12,35,16.30
2010,04,29,12,36,12.90
2010,04,29,12,37,7.60
2010,04,29,12,38,2.90
2010,04,29,12,39,7.40
2010,04,29,12,40,12.20
2010,04,29,12,41,14.10
2010,04,29,12,42,11.00
2010,04,29,12,43,9.70
2010,04,29,12,44,9.20
2010,04,29,12,45,5.60
2010,04,29,12,46,10.20
2010,04,29,12,47,9.70
2010,04,29,12,48,9.00
2010,04,29,12,49,8.40
2010,04,29,12,50,7.90
2010,04,29,12,51,6.00
2010,04,29,12,52,10.40
2010,04,29,12,53,4.90
2010,04,29,12,54,11.50
2010,04,29,12,55,8.20
2010,04,29,12,56,8.90
2010,04,29,12,57,6.20
2010,04,29,12,58,8.60
2010,04,29,12,59,13.20
2010,04,29,13,00,9.90
2010,04,29,13,01,4.50
2010,04,29,13,02,10.40
2010,04,29,13,03,12.10
2010,04,29,13,04,14.30
2010,04,29,13,05,11.70
2010,04,29,13,06,15.80
2010,04,29,13,07,8.10
2010,04,29,13,08,14.30
2010,04,29,13,09,14.60
2010,04,29,13,10,11.90
2010,04,29,13,11,14.00
2010,04,29,13,12,7.20
2010,04,29,13,13,6.90
2010,04,29,13,14,7.50
2010,04,29,13,15,4.50
2010,04,29,13,16,6.00
2010,04,29,13,17,12.30
2010,04,29,13,18,5.00
2010,04,29,13,19,10.50
2010,04,29,13,20,12.30
2010,04,29,13,21,11.80
2010,04,29,13,22,6.80
2010,04,29,13,23,15.70
2010,04,29,13,24,13.60
2010,04,29,13,25,6.70
2010,04,29,13,26,10.30
2010,04,29,13,27,6.30
2010,04,29,13,28,5.30
2010,04,29,13,29,8.50
2010,04,29,13,30,9.60
2010,04,29,13,31,7.80
2010,04,29,13,32,8.70
2010,04,29,13,33,6.20
2010,04,29,13,34,6.40
2010,04,29,13,35,2.70
2010,04,29,13,36,7.00
2010,04,29,13,37,8.30
2010,04,29,13,38,8.50
2010,04,29,13,39,10.50
2010,04,29,13,40,11.00
2010,04,29,13,41,10.40
2010,04,29,13,42,13.70
2010,04,29,13,43,10.90
2010,04,29,13,44,6.00
2010,04,29,13,45,13.40
2010,04,29,13,46,12.70
2010,04,29,13,47,4.70
2010,04,29,13,48,10.30
2010,04,29,13,49,4.30
2010,04,29,13,50,11.10
2010,04,29,13,51,14.40
2010,04,29,13,52,14.60
2010,04,29,13,53,7.10
2010,04,29,13,54,5.50
2010,04,29,13,55,8.00
2010,04,29,13,56,5.20
2010,04,29,13,57,8.50
2010,04,29,13,58,13.60
2010,04,29,13,59,10.00
2010,04,29,14,00,11.90
2010,04,29,14,01,10.20
2010,04,29,14,02,10.60
2010,04,29,14,03,9.70
2010,04,29,14,04,10.70
2010,04,29,14,05,15.90
2010,04,29,14,06,4.30
2010,04,29,14,07,11.10
2010,04,29,14,08,7.60
2010,04,29,14,09,10.50
2010,04,29,14,10,3.60
2010,04,29,14,11,9.10
2010,04,29,14,12,4.20
2010,04,29,14,13,5.60
2010,04,29,14,14,9.40
2010,04,29,14,15,4.10
2010,04,29,14,16,7.20
2010,04,29,14,17,9.80
2010,04,29,14,18,15.00
2010,04,29,14,19,11.20
2010,04,29,14,20,13.60
2010,04,29,14,21,14.40
2010,04,29,14,22,10.70
2010,04,29,14,23,13.90
2010,04,29,14,24,8.40
2010,04,29,14,25,6.00
2010,04,29,14,26,5.40
2010,04,29,14,27,7.60
2010,04,29,14,28,9.20
2010,04,29,14,29,7.90
2010,04,29,14,30,7.80
2010,04,29,14,31,9.00
2010,04,29,14,32,5.90
2010,04,29,14,33,12.30
2010,04,29,14,34,5.10
2010,04,29,14,35,1.90
2010,04,29,14,36,8.00
2010,04,29,14,37,6.40
2010,04,29,14,38,9.40
2010,04,29,14,39,8.10
2010,04,29,14,40,11.30
2010,04,29,14,41,16.40
2010,04,29,14,42,11.20
2010,04,29,14,43,9.70
2010,04,29,14,44,8.50
2010,04,29,14,45,17.00
2010,04,29,14,46,13.60
2010,04,29,14,47,8.60
2010,04,29,14,48,6.10
2010,04,29,14,49,17.60
2010,04,29,14,50,12.70
2010,04,29,14,51,11.30
2010,04,29,14,52,9.20
2010,04,29,14,53,10.50
2010,04,29,14,54,9.80
2010,04,29,14,55,12.60
2010,04,29,14,56,10.90
2010,04,29,14,57,10.10
2010,04,29,14,58,8.90
2010,04,29,14,59,12.50
2010,04,29,15,00,4.60
2010,04,29,15,01,17.00
2010,04,29,15,02,11.70
2010,04,29,15,03,9.10
2010,04,29,15,04,12.90
2010,04,29,15,05,9.60
2010,04,29,15,06,8.40
2010,04,29,15,07,10.00
2010,04,29,15,08,11.30
2010,04,29,15,09,11.80
2010,04,29,15,10,13.80
2010,04,29,15,11,6.80
2010,04,29,15,12,12.50
2010,04,29,15,13,9.90
2010,04,29,15,14,10.70
2010,04,29,15,15,8.00
2010,04,29,15,16,10.50
2010,04,29,15,17,6.40
2010,04,29,15,18,2.20
2010,04,29,15,19,10.90
2010,04,29,15,20,12.60
2010,04,29,15,21,9.20
2010,04,29,15,22,12.20
2010,04,29,15,23,14.90
2010,04,29,15,24,7.70
2010,04,29,15,25,5.00
2010,04,29,15,26,7.50
2010,04,29,15,27,9.20
2010,04,29,15,28,4.60
2010,04,29,15,29,6.50
2010,04,29,15,30,9.70
2010,04,29,15,31,10.80
2010,04,29,15,32,7.80
2010,04,29,15,33,7.00
2010,04,29,15,34,7.10
2010,04,29,15,35,11.10
2010,04,29,15,36,7.50
2010,04,29,15,37,8.00
2010,04,29,15,38,10.90
2010,04,29,15,39,9.40
2010,04,29,15,40,13.00
2010,04,29,15,41,9.80
2010,04,29,15,42,6.50
2010,04,29,15,43,11.30
2010,04,29,15,44,8.50
2010,04,29,15,45,10.10
2010,04,29,15,46,16.70
2010,04,29,15,47,7.60
2010,04,29,15,48,5.90
2010,04,29,15,49,15.30
2010,04,29,15,50,10.40
2010,04,29,15,51,10.90
2010,04,29,15,52,6.80
2010,04,29,15,53,5.00
2010,04,29,15,54,4.70
2010,04,29,15,55,4.90
2010,04,29,15,56,4.50
2010,04,29,15,57,2.00
2010,04,29,15,58,9.00
2010,04,29,15,59,7.20
2010,04,29,16,00,5.90
2010,04,29,16,01,6.80
2010,04,29,16,02,3.50
2010,04,29,16,03,6.40
2010,04,29,16,04,8.10
2010,04,29,16,05,12.20
2010,04,29,16,06,10.90
2010,04,29,16,07,9.30
2010,04,29,16,08,10.00
2010,04,29,16,09,11.50
2010,04,29,16,10,10.40
2010,04,29,16,11,7.20
2010,04,29,16,12,5.50
2010,04,29,16,13,6.30
2010,04,29,16,14,7.60
2010,04,29,16,15,4.30
2010,04,29,16,16,6.40
2010,04,29,16,17,15.00
2010,04,29,16,18,14.60
2010,04,29,16,19,10.30
2010,04,29,16,20,8.50
2010,04,29,16,21,14.20
2010,04,29,16,22,10.30
2010,04,29,16,23,4.90
2010,04,29,16,24,9.10
2010,04,29,16,25,7.80
2010,04,29,16,26,2.30
2010,04,29,16,27,6.40
2010,04,29,16,28,7.50
2010,04,29,16,29,8.10
2010,04,29,16,30,9.20
2010,04,29,16,31,4.40
2010,04,29,16,32,7.70
2010,04,29,16,33,11.50
2010,04,29,16,34,9.70
2010,04,29,16,35,7.70
2010,04,29,16,36,8.90
2010,04,29,16,37,8.60
2010,04,29,16,38,9.00
2010,04,29,16,39,10.70
2010,04,29,16,40,6.70
2010,04,29,16,41,10.90
2010,04,29,16,42,6.70
2010,04,29,16,43,7.60
2010,04,29,16,44,13.00
2010,04,29,16,45,9.70
2010,04,29,16,46,7.20
2010,04,29,16,47,6.80
2010,04,29,16,48,4.70
2010,04,29,16,49,7.90
2010,04,29,16,50,8.20
2010,04,29,16,51,13.00
2010,04,29,16,52,7.70
2010,04,29,16,53,1.90
2010,04,29,16,54,9.80
2010,04,29,16,55,7.80
2010,04,29,16,56,10.50
2010,04,29,16,57,3.40
2010,04,29,16,58,7.20
2010,04,29,16,59,5.10
2010,04,29,17,00,7.60
2010,04,29,17,01,9.40
2010,04,29,17,02,9.00
2010,04,29,17,03,7.20
2010,04,29,17,04,8.30
2010,04,29,17,05,6.80
2010,04,29,17,06,6.90
2010,04,29,17,07,5.50
2010,04,29,17,08,9.30
2010,04,29,17,09,12.10
2010,04,29,17,10,15.10
2010,04,29,17,11,9.10
2010,04,29,17,12,4.20
2010,04,29,17,13,7.80
2010,04,29,17,14,7.60
2010,04,29,17,15,6.50
2010,04,29,17,16,7.10
2010,04,29,17,17,13.90
2010,04,29,17,18,12.00
2010,04,29,17,19,15.10
2010,04,29,17,20,15.80
2010,04,29,17,21,12.80
2010,04,29,17,22,7.60
2010,04,29,17,23,12.60
2010,04,29,17,24,8.00
2010,04,29,17,25,10.10
2010,04,29,17,26,9.90
2010,04,29,17,27,5.20
2010,04,29,17,28,8.40
2010,04,29,17,29,11.80
2010,04,29,17,30,7.20
2010,04,29,17,31,11.70
2010,04,29,17,32,11.30
2010,04,29,17,33,11.70
2010,04,29,17,34,8.70
2010,04,29,17,35,5.20
2010,04,29,17,36,12.00
2010,04,29,17,37,4.40
2010,04,29,17,38,7.00
2010,04,29,17,39,15.20
2010,04,29,17,40,10.00
2010,04,29,17,41,9.70
2010,04,29,17,42,10.30
2010,04,29,17,43,6.00
2010,04,29,17,44,10.10
2010,04,29,17,45,15.20
2010,04,29,17,46,4.70
2010,04,29,17,47,11.60
2010,04,29,17,48,10.30
2010,04,29,17,49,8.90
2010,04,29,17,50,10.30
2010,04,29,17,51,5.20
2010,04,29,17,52,10.30
2010,04,29,17,53,8.10
2010,04,29,17,54,7.40
2010,04,29,17,55,8.80
2010,04,29,17,56,11.90
2010,04,29,17,57,10.90
2010,04,29,17,58,5.80